Location: Arroyo de Valdeoliva
(40.1604°N, 4.9878°W)
Time: 23:11:41
(UTC+00:00)

Cosmos 2084 Rocket - Visible Passes

Search period start: 12 March 2026 00:00
Search period end: 22 March 2026 00:00
Orbit: 538 x 573 km, 62.8° (Epoch: 12 March)

Date Brightness Start Highest point End Pass type
(mag) Time Alt. Az. Time Alt. Az. Time Alt. Az.
12 Mar 6.4 05:42:14 10° SE 05:44:14 13° ESE 05:46:13 10° E visible
13 Mar 6.1 05:38:08 10° SSE 05:41:00 19° ESE 05:43:53 10° ENE visible
14 Mar 5.6 05:34:24 10° S 05:37:48 26° ESE 05:41:14 10° ENE visible
15 Mar 4.9 05:30:53 10° S 05:34:37 36° ESE 05:38:24 10° NE visible
16 Mar 4.1 05:27:30 10° SSW 05:31:27 52° ESE 05:35:27 10° NE visible
17 Mar 3.4 05:24:16 10° SSW 05:28:18 76° SE 05:32:26 10° NE visible
18 Mar 3.2 05:21:42 14° SW 05:25:11 77° NW 05:29:19 10° NNE visible
19 Mar 6.0 03:43:33 14° ESE 03:43:51 14° ESE 03:45:55 10° E visible
19 Mar 3.5 05:19:23 19° SW 05:22:06 55° NW 05:26:09 10° NNE visible
20 Mar 5.7 03:41:05 19° ESE 03:41:05 19° ESE 03:43:31 10° ENE visible
20 Mar 3.9 05:16:54 22° WSW 05:19:01 40° NW 05:22:55 10° NNE visible
21 Mar 5.5 03:38:29 23° E 03:38:29 23° E 03:40:49 10° ENE visible
21 Mar 4.3 05:14:18 22° W 05:15:58 30° NW 05:19:38 10° NNE visible
